﻿測定場所 (Monitoring sites),日付 (Measurement date),時間 (Measurement time),線量率 最大値 (max) μGy/h,線量率 最小値 (min) μGy/h,線量率 平均値 (average) μGy/h,
調布 (Chofu),2015-07-19,23:01～24:00,0.0327,0.0280,0.0304,
調布 (Chofu),2015-07-19,22:01～23:00,0.0316,0.0280,0.0297,
調布 (Chofu),2015-07-19,21:01～22:00,0.0319,0.0280,0.0298,
調布 (Chofu),2015-07-19,20:01～21:00,0.0317,0.0277,0.0299,
調布 (Chofu),2015-07-19,19:01～20:00,0.0319,0.0280,0.0298,
調布 (Chofu),2015-07-19,18:01～19:00,0.0318,0.0274,0.0297,
調布 (Chofu),2015-07-19,17:01～18:00,0.0316,0.0276,0.0298,
調布 (Chofu),2015-07-19,16:01～17:00,0.0315,0.0280,0.0297,
調布 (Chofu),2015-07-19,15:01～16:00,0.0317,0.0278,0.0299,
調布 (Chofu),2015-07-19,14:01～15:00,0.0314,0.0276,0.0297,
調布 (Chofu),2015-07-19,13:01～14:00,0.0319,0.0276,0.0298,
調布 (Chofu),2015-07-19,12:01～13:00,0.0314,0.0262,0.0295,
調布 (Chofu),2015-07-19,11:01～12:00,0.0308,0.0275,0.0294,
調布 (Chofu),2015-07-19,10:01～11:00,0.0330,0.0279,0.0297,
調布 (Chofu),2015-07-19,09:01～10:00,0.0327,0.0293,0.0307,
調布 (Chofu),2015-07-19,08:01～09:00,0.0329,0.0293,0.0311,
調布 (Chofu),2015-07-19,07:01～08:00,0.0330,0.0295,0.0313,
調布 (Chofu),2015-07-19,06:01～07:00,0.0336,0.0301,0.0319,
調布 (Chofu),2015-07-19,05:01～06:00,0.0335,0.0287,0.0309,
調布 (Chofu),2015-07-19,04:01～05:00,0.0328,0.0287,0.0308,
調布 (Chofu),2015-07-19,03:01～04:00,0.0327,0.0280,0.0303,
調布 (Chofu),2015-07-19,02:01～03:00,0.0315,0.0265,0.0296,
調布 (Chofu),2015-07-19,01:01～02:00,0.0307,0.0272,0.0290,
調布 (Chofu),2015-07-19,00:01～01:00,0.0305,0.0271,0.0290,
調布 (Chofu),2015-07-18,23:01～24:00,0.0320,0.0274,0.0289,
調布 (Chofu),2015-07-18,22:01～23:00,0.0308,0.0274,0.0291,
調布 (Chofu),2015-07-18,21:01～22:00,0.0304,0.0262,0.0288,
調布 (Chofu),2015-07-18,20:01～21:00,0.0308,0.0258,0.0292,
調布 (Chofu),2015-07-18,19:01～20:00,0.0320,0.0275,0.0296,
調布 (Chofu),2015-07-18,18:01～19:00,0.0329,0.0288,0.0303,
調布 (Chofu),2015-07-18,17:01～18:00,0.0325,0.0292,0.0307,
調布 (Chofu),2015-07-18,16:01～17:00,0.0320,0.0279,0.0297,
調布 (Chofu),2015-07-18,15:01～16:00,0.0320,0.0279,0.0301,
調布 (Chofu),2015-07-18,14:01～15:00,0.0328,0.0292,0.0312,
調布 (Chofu),2015-07-18,13:01～14:00,0.0329,0.0291,0.0310,
調布 (Chofu),2015-07-18,12:01～13:00,0.0316,0.0276,0.0299,
調布 (Chofu),2015-07-18,11:01～12:00,0.0318,0.0276,0.0292,
調布 (Chofu),2015-07-18,10:01～11:00,0.0311,0.0264,0.0289,
調布 (Chofu),2015-07-18,09:01～10:00,0.0307,0.0275,0.0290,
調布 (Chofu),2015-07-18,08:01～09:00,0.0308,0.0271,0.0287,
調布 (Chofu),2015-07-18,07:01～08:00,0.0303,0.0265,0.0289,
調布 (Chofu),2015-07-18,06:01～07:00,0.0304,0.0271,0.0288,
調布 (Chofu),2015-07-18,05:01～06:00,0.0308,0.0270,0.0290,
調布 (Chofu),2015-07-18,04:01～05:00,0.0304,0.0273,0.0288,
調布 (Chofu),2015-07-18,03:01～04:00,0.0306,0.0267,0.0289,
調布 (Chofu),2015-07-18,02:01～03:00,0.0304,0.0270,0.0288,
調布 (Chofu),2015-07-18,01:01～02:00,0.0306,0.0271,0.0289,
調布 (Chofu),2015-07-18,00:01～01:00,0.0310,0.0267,0.0288,
調布 (Chofu),2015-07-17,23:01～24:00,0.0306,0.0265,0.0286,
調布 (Chofu),2015-07-17,22:01～23:00,0.0304,0.0266,0.0286,
調布 (Chofu),2015-07-17,21:01～22:00,0.0304,0.0275,0.0288,
調布 (Chofu),2015-07-17,20:01～21:00,0.0301,0.0271,0.0287,
調布 (Chofu),2015-07-17,19:01～20:00,0.0307,0.0271,0.0286,
調布 (Chofu),2015-07-17,18:01～19:00,0.0308,0.0269,0.0290,
調布 (Chofu),2015-07-17,17:01～18:00,0.0313,0.0270,0.0290,
調布 (Chofu),2015-07-17,16:01～17:00,0.0304,0.0267,0.0286,
調布 (Chofu),2015-07-17,15:01～16:00,0.0311,0.0269,0.0289,
調布 (Chofu),2015-07-17,14:01～15:00,0.0305,0.0272,0.0287,
調布 (Chofu),2015-07-17,13:01～14:00,0.0306,0.0267,0.0287,
調布 (Chofu),2015-07-17,12:01～13:00,0.0306,0.0276,0.0290,
調布 (Chofu),2015-07-17,11:01～12:00,0.0323,0.0275,0.0296,
調布 (Chofu),2015-07-17,10:01～11:00,0.0317,0.0280,0.0298,
調布 (Chofu),2015-07-17,09:01～10:00,0.0308,0.0266,0.0289,
調布 (Chofu),2015-07-17,08:01～09:00,0.0301,0.0271,0.0285,
調布 (Chofu),2015-07-17,07:01～08:00,0.0313,0.0271,0.0286,
調布 (Chofu),2015-07-17,06:01～07:00,0.0297,0.0262,0.0283,
調布 (Chofu),2015-07-17,05:01～06:00,0.0302,0.0266,0.0286,
調布 (Chofu),2015-07-17,04:01～05:00,0.0302,0.0262,0.0283,
調布 (Chofu),2015-07-17,03:01～04:00,0.0299,0.0267,0.0283,
調布 (Chofu),2015-07-17,02:01～03:00,0.0312,0.0265,0.0292,
調布 (Chofu),2015-07-17,01:01～02:00,0.0344,0.0283,0.0309,
調布 (Chofu),2015-07-17,00:01～01:00,0.0340,0.0300,0.0318,
調布 (Chofu),2015-07-16,23:01～24:00,0.0328,0.0277,0.0301,
調布 (Chofu),2015-07-16,22:01～23:00,0.0313,0.0267,0.0289,
調布 (Chofu),2015-07-16,21:01～22:00,0.0307,0.0267,0.0288,
調布 (Chofu),2015-07-16,20:01～21:00,0.0312,0.0265,0.0288,
調布 (Chofu),2015-07-16,19:01～20:00,0.0304,0.0271,0.0287,
調布 (Chofu),2015-07-16,18:01～19:00,0.0314,0.0273,0.0289,
調布 (Chofu),2015-07-16,17:01～18:00,0.0307,0.0267,0.0288,
調布 (Chofu),2015-07-16,16:01～17:00,0.0309,0.0270,0.0288,
調布 (Chofu),2015-07-16,15:01～16:00,0.0322,0.0277,0.0299,
調布 (Chofu),2015-07-16,14:01～15:00,0.0344,0.0295,0.0312,
調布 (Chofu),2015-07-16,13:01～14:00,0.0346,0.0292,0.0311,
調布 (Chofu),2015-07-16,12:01～13:00,0.0354,0.0300,0.0328,
調布 (Chofu),2015-07-16,11:01～12:00,0.0336,0.0292,0.0318,
調布 (Chofu),2015-07-16,10:01～11:00,0.0348,0.0293,0.0312,
調布 (Chofu),2015-07-16,09:01～10:00,0.0348,0.0287,0.0318,
調布 (Chofu),2015-07-16,08:01～09:00,0.0409,0.0318,0.0359,
調布 (Chofu),2015-07-16,07:01～08:00,0.0429,0.0361,0.0398,
調布 (Chofu),2015-07-16,06:01～07:00,0.0423,0.0364,0.0389,
調布 (Chofu),2015-07-16,05:01～06:00,0.0408,0.0339,0.0373,
調布 (Chofu),2015-07-16,04:01～05:00,0.0392,0.0305,0.0346,
調布 (Chofu),2015-07-16,03:01～04:00,0.0324,0.0285,0.0306,
調布 (Chofu),2015-07-16,02:01～03:00,0.0324,0.0287,0.0304,
調布 (Chofu),2015-07-16,01:01～02:00,0.0342,0.0296,0.0315,
調布 (Chofu),2015-07-16,00:01～01:00,0.0331,0.0295,0.0317,
調布 (Chofu),2015-07-15,23:01～24:00,0.0339,0.0296,0.0319,
調布 (Chofu),2015-07-15,22:01～23:00,0.0339,0.0299,0.0318,
調布 (Chofu),2015-07-15,21:01～22:00,0.0331,0.0287,0.0308,
調布 (Chofu),2015-07-15,20:01～21:00,0.0327,0.0283,0.0305,
調布 (Chofu),2015-07-15,19:01～20:00,0.0330,0.0285,0.0305,
調布 (Chofu),2015-07-15,18:01～19:00,0.0333,0.0282,0.0309,
調布 (Chofu),2015-07-15,17:01～18:00,0.0324,0.0288,0.0307,
調布 (Chofu),2015-07-15,16:01～17:00,0.0327,0.0289,0.0307,
調布 (Chofu),2015-07-15,15:01～16:00,0.0322,0.0286,0.0305,
調布 (Chofu),2015-07-15,14:01～15:00,0.0319,0.0293,0.0306,
調布 (Chofu),2015-07-15,13:01～14:00,0.0323,0.0283,0.0306,
調布 (Chofu),2015-07-15,12:01～13:00,0.0326,0.0284,0.0305,
調布 (Chofu),2015-07-15,11:01～12:00,0.0325,0.0288,0.0303,
調布 (Chofu),2015-07-15,10:01～11:00,0.0320,0.0285,0.0304,
調布 (Chofu),2015-07-15,09:01～10:00,0.0331,0.0288,0.0308,
調布 (Chofu),2015-07-15,08:01～09:00,0.0323,0.0290,0.0306,
調布 (Chofu),2015-07-15,07:01～08:00,0.0329,0.0289,0.0306,
調布 (Chofu),2015-07-15,06:01～07:00,0.0322,0.0286,0.0306,
調布 (Chofu),2015-07-15,05:01～06:00,0.0331,0.0288,0.0305,
調布 (Chofu),2015-07-15,04:01～05:00,0.0323,0.0285,0.0304,
調布 (Chofu),2015-07-15,03:01～04:00,0.0330,0.0274,0.0304,
調布 (Chofu),2015-07-15,02:01～03:00,0.0329,0.0288,0.0305,
調布 (Chofu),2015-07-15,01:01～02:00,0.0322,0.0279,0.0303,
調布 (Chofu),2015-07-15,00:01～01:00,0.0321,0.0286,0.0305,
調布 (Chofu),2015-07-14,23:01～24:00,0.0321,0.0290,0.0304,
調布 (Chofu),2015-07-14,22:01～23:00,0.0325,0.0286,0.0303,
調布 (Chofu),2015-07-14,21:01～22:00,0.0326,0.0286,0.0307,
調布 (Chofu),2015-07-14,20:01～21:00,0.0333,0.0283,0.0306,
調布 (Chofu),2015-07-14,19:01～20:00,0.0321,0.0279,0.0303,
調布 (Chofu),2015-07-14,18:01～19:00,0.0330,0.0283,0.0304,
調布 (Chofu),2015-07-14,17:01～18:00,0.0327,0.0290,0.0306,
調布 (Chofu),2015-07-14,16:01～17:00,0.0326,0.0289,0.0306,
調布 (Chofu),2015-07-14,15:01～16:00,0.0321,0.0284,0.0306,
調布 (Chofu),2015-07-14,14:01～15:00,0.0328,0.0286,0.0304,
調布 (Chofu),2015-07-14,13:01～14:00,0.0325,0.0285,0.0306,
調布 (Chofu),2015-07-14,12:01～13:00,0.0312,0.0285,0.0301,
調布 (Chofu),2015-07-14,11:01～12:00,0.0321,0.0287,0.0303,
調布 (Chofu),2015-07-14,10:01～11:00,0.0323,0.0281,0.0301,
調布 (Chofu),2015-07-14,09:01～10:00,0.0319,0.0277,0.0301,
調布 (Chofu),2015-07-14,08:01～09:00,0.0320,0.0277,0.0303,
調布 (Chofu),2015-07-14,07:01～08:00,0.0319,0.0281,0.0300,
調布 (Chofu),2015-07-14,06:01～07:00,0.0323,0.0284,0.0303,
調布 (Chofu),2015-07-14,05:01～06:00,0.0324,0.0285,0.0301,
調布 (Chofu),2015-07-14,04:01～05:00,0.0327,0.0285,0.0300,
調布 (Chofu),2015-07-14,03:01～04:00,0.0315,0.0279,0.0299,
調布 (Chofu),2015-07-14,02:01～03:00,0.0320,0.0278,0.0303,
調布 (Chofu),2015-07-14,01:01～02:00,0.0319,0.0287,0.0304,
調布 (Chofu),2015-07-14,00:01～01:00,0.0319,0.0283,0.0303,
調布 (Chofu),2015-07-13,23:01～24:00,0.0322,0.0285,0.0302,
調布 (Chofu),2015-07-13,22:01～23:00,0.0325,0.0284,0.0302,
調布 (Chofu),2015-07-13,21:01～22:00,0.0321,0.0285,0.0300,
調布 (Chofu),2015-07-13,20:01～21:00,0.0320,0.0283,0.0302,
調布 (Chofu),2015-07-13,19:01～20:00,0.0324,0.0285,0.0302,
調布 (Chofu),2015-07-13,18:01～19:00,0.0319,0.0285,0.0300,
調布 (Chofu),2015-07-13,17:01～18:00,0.0316,0.0282,0.0301,
調布 (Chofu),2015-07-13,16:01～17:00,0.0319,0.0279,0.0300,
調布 (Chofu),2015-07-13,15:01～16:00,0.0331,0.0284,0.0301,
調布 (Chofu),2015-07-13,14:01～15:00,0.0322,0.0284,0.0300,
調布 (Chofu),2015-07-13,13:01～14:00,0.0319,0.0279,0.0302,
調布 (Chofu),2015-07-13,12:01～13:00,0.0321,0.0271,0.0299,
調布 (Chofu),2015-07-13,11:01～12:00,0.0322,0.0286,0.0301,
調布 (Chofu),2015-07-13,10:01～11:00,0.0320,0.0286,0.0302,
調布 (Chofu),2015-07-13,09:01～10:00,0.0321,0.0279,0.0300,
調布 (Chofu),2015-07-13,08:01～09:00,0.0325,0.0284,0.0302,
調布 (Chofu),2015-07-13,07:01～08:00,0.0332,0.0283,0.0309,
調布 (Chofu),2015-07-13,06:01～07:00,0.0344,0.0299,0.0321,
調布 (Chofu),2015-07-13,05:01～06:00,0.0346,0.0310,0.0326,
調布 (Chofu),2015-07-13,04:01～05:00,0.0340,0.0307,0.0324,
調布 (Chofu),2015-07-13,03:01～04:00,0.0346,0.0305,0.0326,
調布 (Chofu),2015-07-13,02:01～03:00,0.0349,0.0300,0.0327,
調布 (Chofu),2015-07-13,01:01～02:00,0.0344,0.0292,0.0316,
調布 (Chofu),2015-07-13,00:01～01:00,0.0316,0.0284,0.0300,
